Blacksburg, VA

5:31 PM EDT on October 18, 2017 (GMT -0400)
Virginia Tech

Weather History for KBCB - September, 2011

Change the Weather History Date:

Friday, September 30, 2011

  Actual Average Record
Temperature  
Mean Temperature 55 °F 58 °F  
Max Temperature 65 °F 70 °F 90 °F (1953)
Min Temperature 45 °F 45 °F 29 °F (1967)
Degree Days  
Heating Degree Days 10 8  
Month to date heating degree days 77 112  
Since 1 July heating degree days 78 131  
Cooling Degree Days 0 1  
Month to date cooling degree days 60 57  
Year to date cooling degree days 870 569  
Growing Degree Days 10 (Base 50)    
Moisture  
Dew Point 53 °F    
Average Humidity 78    
Maximum Humidity 100    
Minimum Humidity 56    
Precipitation  
Precipitation 0.02 in 0.10 in 3.42 in (1959)
Month to date precipitation 4.92 3.10  
Year to date precipitation 33.42 32.29  
Snow  
Snow 0.00 in - - ()
Month to date snowfall 0.0  
Since 1 July snowfall 0.0  
Since 1 September snowfall 0.0  
Snow Depth 0.00 in    
Sea Level Pressure  
Sea Level Pressure 29.84 in    
Wind  
Wind Speed 7 mph (West)    
Max Wind Speed 16 mph    
Max Gust Speed 31 mph    
Visibility 10 miles    
Events      
T = Trace of Precipitation, MM = Missing Value Source: NWS Daily Summary

Daily Weather History Graph

Daily Weather History Graph

Search for Another Location

Airport or City:

Trip Planner

Search our weather history database for the weather conditions in past years. The results will help you decide how hot, cold, wet, or windy it might be!

Date:

Astronomy

Sep. 30, 2011 Rise Set
Actual Time 7:15 AM EDT 7:06 PM EDT
Civil Twilight 6:49 AM EDT 7:32 PM EDT
Nautical Twilight 6:19 AM EDT 8:02 PM EDT
Astronomical Twilight 5:49 AM EDT 8:33 PM EDT
Moon 11:05 AM EDT (9/30) 9:14 PM EDT (9/30)
Length of Visible Light 12h 42m
Length of Day
11h 50m
Waxing Crescent, 15% of the Moon is Illuminated
Sep 30
Waxing Crescent
Oct 3
First Quarter
Oct 11
Full
Oct 19
Last Quarter
Oct 26
New

Hourly Weather History & Observations

Time (EDT) Temp. Dew Point Humidity Pressure Visibility Wind Dir Wind Speed Gust Speed Precip Events Conditions
12:15 AM 55.4 °F 55.4 °F 100% 29.87 in 10.0 mi Calm Calm - N/A   Clear
12:35 AM 55.4 °F 53.6 °F 94% 29.87 in 10.0 mi Calm Calm - N/A   Clear
12:55 AM 55.4 °F 53.6 °F 94% 29.86 in 10.0 mi Calm Calm - N/A   Clear
1:15 AM 55.4 °F 53.6 °F 94% 29.85 in 10.0 mi NW 3.5 mph - N/A   Clear
1:35 AM 55.4 °F 55.4 °F 100% 29.84 in 10.0 mi WSW 3.5 mph - N/A   Clear
1:55 AM 57.2 °F 53.6 °F 88% 29.85 in 10.0 mi South 4.6 mph - N/A   Clear
2:15 AM 57.2 °F 55.4 °F 94% 29.85 in 10.0 mi Calm Calm - N/A   Clear
2:35 AM 57.2 °F 55.4 °F 94% 29.85 in 10.0 mi Calm Calm - N/A   Clear
2:55 AM 57.2 °F 55.4 °F 94% 29.84 in 10.0 mi Calm Calm - N/A   Clear
3:15 AM 55.4 °F 53.6 °F 94% 29.84 in 10.0 mi WNW 3.5 mph - N/A   Clear
3:35 AM 55.4 °F 55.4 °F 100% 29.83 in 10.0 mi Calm Calm - N/A   Clear
4:15 AM 55.4 °F 55.4 °F 100% 29.83 in 10.0 mi Calm Calm - N/A   Clear
4:35 AM 53.6 °F 53.6 °F 100% 29.84 in 10.0 mi NW 5.8 mph - N/A   Clear
4:55 AM 53.6 °F 53.6 °F 100% 29.83 in 10.0 mi Calm Calm - N/A   Clear
5:15 AM 53.6 °F 53.6 °F 100% 29.83 in 10.0 mi Calm Calm - N/A   Scattered Clouds
5:35 AM 53.6 °F 53.6 °F 100% 29.84 in 10.0 mi Calm Calm - N/A   Scattered Clouds
5:55 AM 55.4 °F 55.4 °F 100% 29.84 in 10.0 mi Calm Calm - N/A   Mostly Cloudy
6:15 AM 57.2 °F 55.4 °F 94% 29.84 in 10.0 mi Calm Calm - N/A   Overcast
6:35 AM 57.2 °F 57.2 °F 100% 29.84 in 10.0 mi Calm Calm - N/A   Overcast
6:55 AM 57.2 °F 57.2 °F 100% 29.85 in 10.0 mi WNW 4.6 mph - N/A   Overcast
7:15 AM 60.8 °F 53.6 °F 77% 29.85 in 10.0 mi West 3.5 mph - N/A   Overcast
7:35 AM 59.0 °F 51.8 °F 77% 29.85 in 10.0 mi WNW 4.6 mph - N/A   Overcast
7:55 AM 59.0 °F 53.6 °F 82% 29.85 in 10.0 mi Calm Calm - N/A   Mostly Cloudy
8:15 AM 59.0 °F 55.4 °F 88% 29.85 in 10.0 mi South 3.5 mph - N/A   Overcast
8:35 AM 59.0 °F 55.4 °F 88% 29.84 in 10.0 mi South 3.5 mph - N/A   Overcast
8:55 AM 59.0 °F 55.4 °F 88% 29.85 in 10.0 mi SSW 3.5 mph - N/A   Overcast
9:15 AM 59.0 °F 55.4 °F 88% 29.85 in 10.0 mi Calm Calm - N/A   Overcast
9:35 AM 60.8 °F 53.6 °F 77% 29.85 in 10.0 mi Calm Calm - N/A   Overcast
9:55 AM 59.0 °F 53.6 °F 82% 29.86 in 10.0 mi Calm Calm - N/A   Overcast
10:15 AM 60.8 °F 55.4 °F 82% 29.85 in 10.0 mi Calm Calm - N/A   Overcast
10:35 AM 60.8 °F 51.8 °F 72% 29.86 in 10.0 mi West 3.5 mph - N/A   Mostly Cloudy
10:55 AM 60.8 °F 51.8 °F 72% 29.86 in 10.0 mi West 4.6 mph - N/A   Clear
11:15 AM 62.6 °F 50.0 °F 63% 29.86 in 10.0 mi West 4.6 mph - N/A   Clear
11:35 AM 62.6 °F 48.2 °F 59% 29.86 in 10.0 mi West 8.1 mph - N/A   Clear
11:55 AM 64.4 °F 48.2 °F 56% 29.85 in 10.0 mi WSW 8.1 mph - N/A   Clear
12:15 PM 64.4 °F 48.2 °F 56% 29.85 in 10.0 mi West 9.2 mph - N/A   Clear
12:35 PM 64.4 °F 50.0 °F 59% 29.84 in 10.0 mi West 8.1 mph - N/A   Clear
12:55 PM 64.4 °F 51.8 °F 64% 29.84 in 10.0 mi WNW 6.9 mph 16.1 mph N/A   Clear
1:15 PM 66.2 °F 51.8 °F 60% 29.84 in 10.0 mi West 6.9 mph - N/A   Clear
1:35 PM 66.2 °F 51.8 °F 60% 29.83 in 10.0 mi West 8.1 mph - N/A   Scattered Clouds
1:55 PM 66.2 °F 51.8 °F 60% 29.82 in 10.0 mi WSW 6.9 mph - N/A   Scattered Clouds
2:15 PM 68.0 °F 51.8 °F 56% 29.82 in 10.0 mi WNW 9.2 mph - N/A   Scattered Clouds
2:35 PM 64.4 °F 50.0 °F 59% 29.82 in 10.0 mi WNW 8.1 mph - N/A   Mostly Cloudy
2:55 PM 64.4 °F 50.0 °F 59% 29.82 in 10.0 mi WNW 13.8 mph 21.9 mph N/A   Overcast
3:15 PM 64.4 °F 50.0 °F 59% 29.83 in 10.0 mi NW 17.3 mph 21.9 mph N/A   Mostly Cloudy
3:35 PM 62.6 °F 48.2 °F 59% 29.83 in 10.0 mi WNW 15.0 mph 26.5 mph N/A   Overcast
3:55 PM 62.6 °F 48.2 °F 59% 29.83 in 10.0 mi NW 16.1 mph 20.7 mph N/A   Overcast
4:15 PM 60.8 °F 46.4 °F 59% 29.83 in 10.0 mi WNW 12.7 mph 24.2 mph N/A   Overcast
4:35 PM 60.8 °F 46.4 °F 59% 29.84 in 10.0 mi WNW 16.1 mph 21.9 mph N/A   Overcast
4:55 PM 59.0 °F 46.4 °F 63% 29.84 in 10.0 mi WNW 9.2 mph - N/A   Overcast
5:15 PM 59.0 °F 46.4 °F 63% 29.84 in 10.0 mi WNW 10.4 mph 17.3 mph N/A   Overcast
5:35 PM 60.8 °F 48.2 °F 63% 29.84 in 10.0 mi West 10.4 mph 18.4 mph N/A   Mostly Cloudy
5:55 PM 57.2 °F 46.4 °F 67% 29.84 in 10.0 mi WNW 11.5 mph 20.7 mph N/A   Scattered Clouds
6:15 PM 57.2 °F 46.4 °F 67% 29.84 in 10.0 mi WNW 10.4 mph 18.4 mph N/A   Scattered Clouds
6:35 PM 57.2 °F 48.2 °F 72% 29.84 in 10.0 mi WNW 5.8 mph - N/A   Mostly Cloudy
6:55 PM 57.2 °F 46.4 °F 67% 29.84 in 10.0 mi WNW 16.1 mph 23.0 mph N/A   Overcast
7:15 PM 55.4 °F 46.4 °F 72% 29.84 in 10.0 mi WNW 13.8 mph 21.9 mph N/A   Overcast
7:35 PM 55.4 °F 46.4 °F 72% 29.84 in 10.0 mi WNW 11.5 mph 23.0 mph N/A   Overcast
7:55 PM 55.4 °F 48.2 °F 77% 29.84 in 10.0 mi WNW 9.2 mph 17.3 mph N/A   Overcast
8:15 PM 53.6 °F 48.2 °F 82% 29.83 in 10.0 mi WNW 9.2 mph 21.9 mph N/A   Overcast
8:35 PM 53.6 °F 48.2 °F 82% 29.83 in 10.0 mi WNW 11.5 mph 17.3 mph N/A   Overcast
8:55 PM 53.6 °F 48.2 °F 82% 29.84 in 10.0 mi WNW 12.7 mph 18.4 mph N/A Rain Rain
9:15 PM 53.6 °F 48.2 °F 82% 29.83 in 10.0 mi WNW 16.1 mph 31.1 mph N/A   Mostly Cloudy
9:35 PM 53.6 °F 46.4 °F 77% 29.83 in 10.0 mi WNW 12.7 mph 23.0 mph N/A   Overcast
9:55 PM 53.6 °F 46.4 °F 77% 29.83 in 10.0 mi NW 15.0 mph 31.1 mph N/A   Overcast
10:15 PM 53.6 °F 48.2 °F 82% 29.83 in 10.0 mi WNW 9.2 mph - N/A   Overcast
10:35 PM 53.6 °F 48.2 °F 82% 29.84 in 10.0 mi WNW 10.4 mph 19.6 mph N/A   Overcast
10:55 PM 51.8 °F 48.2 °F 88% 29.85 in 5.0 mi NW 11.5 mph - N/A   Heavy Drizzle
11:15 PM 51.8 °F 46.4 °F 82% 29.85 in 10.0 mi NW 12.7 mph 24.2 mph N/A   Overcast
11:35 PM 50.0 °F 44.6 °F 82% 29.86 in 10.0 mi WNW 15.0 mph 25.3 mph N/A   Overcast
11:55 PM 50.0 °F 44.6 °F 82% 29.87 in 10.0 mi WNW 11.5 mph 23.0 mph N/A   Overcast